Weather History for Massena, NY

Change the Weather History Date:

Friday, March 9, 2012

  Actual Average Record
Temperature  
Mean Temperature 28 °F 25 °F  
Max Temperature 34 °F 35 °F 68 °F (2002)
Min Temperature 22 °F 15 °F -22 °F (1984)
Degree Days  
Heating Degree Days 37 40  
Month to date heating degree days 324 376  
Since 1 July heating degree days 4864 6363  
Cooling Degree Days 0 0  
Month to date cooling degree days 0 0  
Year to date cooling degree days 0 0  
Moisture  
Dew Point 23 °F    
Average Humidity 78    
Maximum Humidity 100    
Minimum Humidity 56    
Precipitation  
Precipitation 0.18 in 0.07 in 0.98 in (1998)
Month to date precipitation 0.86 0.60  
Year to date precipitation 3.55 4.55  
Sea Level Pressure  
Sea Level Pressure 30.07 in    
Wind  
Wind Speed 7 mph (WSW)    
Max Wind Speed 22 mph    
Max Gust Speed 30 mph    
Visibility 6 miles    
Events Fog , Snow    
T = Trace of Precipitation, MM = Missing Value Source: NWS Daily Summary

Daily Weather History Graph

Daily Weather History Graph

Search for Another Location

Airport:

Trip Planner

Search our weather history database for the weather conditions in past years. The results will help you decide how hot, cold, wet, or windy it might be!

Date:

Astronomy

Mar. 09, 2012 Rise Set
Actual Time 6:22 AM EST 5:58 PM EST
Civil Twilight 5:52 AM EST 6:27 PM EST
Nautical Twilight 5:18 AM EST 7:01 PM EST
Astronomical Twilight 4:44 AM EST 7:35 PM EST
Moon 8:03 PM EST (3/9) 6:32 AM EST (3/9)
Length of Visible Light 12h 34m
Length of Day
11h 36m
Full, 98% of the Moon is Illuminated
Mar 9
Full
Mar 14
Last Quarter
Mar 22
New
Mar 30
First Quarter
Apr 6
Full

Hourly Weather History & Observations

Time (EST) Temp. Windchill Dew Point Humidity Pressure Visibility Wind Dir Wind Speed Gust Speed Precip Events Conditions
12:04 AM 33.8 °F 24.3 °F 32.0 °F 93% 29.84 in 8.0 mi WSW 13.8 mph 23.0 mph 0.00 in   Overcast
12:17 AM 33.8 °F 23.5 °F 32.0 °F 93% 29.85 in 2.0 mi West 16.1 mph 24.2 mph 0.00 in Snow Light Snow
12:19 AM 33.8 °F 24.3 °F 32.0 °F 93% 29.86 in 1.2 mi West 13.8 mph 24.2 mph 0.01 in Snow Light Snow
12:27 AM 33.8 °F 23.9 °F 30.2 °F 87% 29.86 in 2.0 mi West 15.0 mph 27.6 mph 0.01 in Snow Light Snow
12:34 AM 33.8 °F 22.5 °F 30.2 °F 87% 29.87 in 6.0 mi WNW 19.6 mph 27.6 mph 0.01 in Snow Light Snow
12:53 AM 32.0 °F 20.8 °F 26.1 °F 79% 29.90 in 10.0 mi WNW 17.3 mph 25.3 mph 0.01 in   Overcast
1:01 AM 32.0 °F 21.6 °F 26.6 °F 80% 29.89 in 9.0 mi West 15.0 mph 23.0 mph 0.00 in Snow Light Snow
1:53 AM 30.9 °F 20.7 °F 25.0 °F 79% 29.94 in 8.0 mi West 13.8 mph 23.0 mph 0.00 in Snow Light Snow
2:53 AM 27.0 °F 15.6 °F 19.0 °F 72% 29.97 in 10.0 mi West 13.8 mph - 0.00 in   Scattered Clouds
3:53 AM 26.1 °F 16.8 °F 18.0 °F 71% 30.02 in 10.0 mi West 9.2 mph - N/A   Clear
4:53 AM 25.0 °F 15.5 °F 17.1 °F 72% 30.06 in 10.0 mi West 9.2 mph - N/A   Clear
5:53 AM 24.1 °F 15.2 °F 16.0 °F 71% 30.08 in 10.0 mi WNW 8.1 mph - N/A   Clear
6:53 AM 21.9 °F - 17.1 °F 82% 30.10 in 10.0 mi Calm Calm - N/A   Partly Cloudy
7:53 AM 25.0 °F 18.1 °F 17.1 °F 72% 30.12 in 10.0 mi West 5.8 mph - N/A   Clear
8:53 AM 26.1 °F 19.4 °F 18.0 °F 71% 30.13 in 10.0 mi WSW 5.8 mph - N/A   Partly Cloudy
9:46 AM 26.6 °F 21.2 °F 17.6 °F 69% 30.10 in 10.0 mi WSW 4.6 mph - N/A   Mostly Cloudy
9:53 AM 27.0 °F 20.5 °F 18.0 °F 69% 30.12 in 10.0 mi WSW 5.8 mph - N/A   Scattered Clouds
10:33 AM 28.4 °F 23.3 °F 19.4 °F 69% 30.10 in 10.0 mi Variable 4.6 mph - N/A   Mostly Cloudy
10:53 AM 28.4 °F 19.7 °F 19.4 °F 69% 30.09 in 10.0 mi SW 9.2 mph - N/A   Mostly Cloudy
11:39 AM 30.2 °F 24.3 °F 19.4 °F 64% 30.09 in 10.0 mi SW 5.8 mph - N/A   Scattered Clouds
11:53 AM 30.9 °F 22.8 °F 19.9 °F 64% 30.11 in 10.0 mi SW 9.2 mph - N/A   Mostly Cloudy
12:53 PM 30.9 °F 24.3 °F 19.9 °F 64% 30.10 in 10.0 mi West 6.9 mph - N/A   Scattered Clouds
1:53 PM 32.0 °F 24.8 °F 19.9 °F 61% 30.10 in 10.0 mi SW 8.1 mph - N/A   Partly Cloudy
2:53 PM 33.1 °F 30.0 °F 19.9 °F 59% 30.09 in 10.0 mi SSW 3.5 mph - N/A   Scattered Clouds
3:53 PM 33.1 °F - 19.0 °F 56% 30.09 in 10.0 mi Calm Calm - N/A   Clear
4:53 PM 32.0 °F 26.4 °F 21.0 °F 64% 30.10 in 10.0 mi NNE 5.8 mph - N/A   Clear
5:53 PM 30.9 °F 26.2 °F 21.0 °F 67% 30.11 in 10.0 mi NNE 4.6 mph - N/A   Overcast
6:53 PM 30.9 °F 27.5 °F 21.0 °F 67% 30.12 in 10.0 mi East 3.5 mph - N/A   Overcast
7:53 PM 30.9 °F 23.5 °F 21.0 °F 67% 30.12 in 10.0 mi East 8.1 mph - N/A   Overcast
8:37 PM 30.2 °F 21.3 °F 23.0 °F 75% 30.12 in 2.5 mi East 10.4 mph - 0.00 in Snow Light Snow
8:53 PM 28.9 °F 21.9 °F 23.0 °F 78% 30.14 in 1.5 mi East 6.9 mph - 0.00 in Snow Light Snow
9:01 PM 28.4 °F 23.3 °F 24.8 °F 86% 30.13 in 1.2 mi East 4.6 mph - 0.00 in Snow Light Snow
9:13 PM 28.4 °F 23.3 °F 24.8 °F 86% 30.15 in 0.8 mi SW 4.6 mph - 0.01 in Snow Light Snow
9:27 PM 28.4 °F - 26.6 °F 93% 30.15 in 0.2 mi Calm Calm - 0.03 in Fog , Snow Heavy Snow
9:40 PM 26.6 °F 21.2 °F 24.8 °F 93% 30.15 in 0.2 mi ENE 4.6 mph - 0.08 in Fog , Snow Heavy Snow
9:53 PM 27.0 °F 18.7 °F 25.0 °F 92% 30.17 in 0.2 mi ENE 8.1 mph - 0.10 in Fog , Snow Heavy Snow
10:17 PM 26.6 °F 20.0 °F 24.8 °F 93% 30.15 in 0.5 mi East 5.8 mph - 0.04 in Fog , Snow Snow
10:53 PM 27.0 °F 23.0 °F 26.1 °F 96% 30.19 in 0.5 mi ESE 3.5 mph - 0.06 in Fog , Snow Snow
10:58 PM 28.4 °F - 24.8 °F 86% 30.17 in 1.0 mi Calm Calm - 0.01 in Snow Light Snow
11:12 PM 26.6 °F - 24.8 °F 93% 30.17 in 1.5 mi Calm Calm - 0.01 in Snow Light Snow
11:26 PM 28.4 °F 24.6 °F 24.8 °F 86% 30.17 in 1.8 mi East 3.5 mph - 0.01 in Snow Light Snow
11:53 PM 27.0 °F - 25.0 °F 92% 30.20 in 1.8 mi Calm Calm - 0.01 in Snow Light Snow